User: anonymous   Login
Location: Unspecified
(0.0000°N, 0.0000°E)
Time: 23:10:53
(UTC+01:00)
Language:

SeaSat 1 - Orbit

View from above orbital plane
View from above orbital plane
View from above satellite
View from above satellite

Ground track
Ground track

The orbit data is extracted from the following two-line orbital elements,

1 10967U 78064A   17055.10701225 -.00000001  00000-0  40071-4 0  9992
2 10967 108.0132  63.1360 0001522 289.0430  71.0550 14.43623447 30284
Epoch (UTC): 24 February 2017 02:34:05
Eccentricity: 0.0001522
inclination: 108.0132°
perigee height: 745 km
apogee height: 747 km
right ascension of ascending node: 63.1360°
argument of perigee: 289.0430°
revolutions per day: 14.43623447
mean anomaly at epoch: 71.0550°
orbit number at epoch: 3028

The dashed part of the orbit path shows where the satellite is in the earth's shadow,  

DLR